TimeEDT,TemperatureF,Dew PointF,Humidity,Sea Level PressureIn,VisibilityMPH,Wind Direction,Wind SpeedMPH,Gust SpeedMPH,PrecipitationIn,Events,Conditions,WindDirDegrees,DateUTC
12:53 AM,75.9,73.9,94,30.15,10.0,East,8.1,-,N/A,,Clear,100,2012-10-04 04:53:00
1:53 AM,75.9,73.9,94,30.16,10.0,East,9.2,-,N/A,,Clear,100,2012-10-04 05:53:00
2:53 AM,75.0,73.0,94,30.14,10.0,East,3.5,-,N/A,,Clear,100,2012-10-04 06:53:00
3:53 AM,75.9,73.0,91,30.12,10.0,East,5.8,-,N/A,,Clear,100,2012-10-04 07:53:00
4:53 AM,75.9,73.0,91,30.12,10.0,East,6.9,-,N/A,,Clear,100,2012-10-04 08:53:00
5:53 AM,75.9,73.0,91,30.15,10.0,East,5.8,-,N/A,,Clear,80,2012-10-04 09:53:00
6:53 AM,75.9,73.0,91,30.17,10.0,NE,4.6,-,N/A,,Clear,50,2012-10-04 10:53:00
7:53 AM,75.9,73.0,91,30.17,10.0,ENE,4.6,-,N/A,,Clear,70,2012-10-04 11:53:00
8:53 AM,78.1,73.9,87,30.19,10.0,East,4.6,-,N/A,,Clear,90,2012-10-04 12:53:00
9:53 AM,80.1,75.0,85,30.18,10.0,ENE,4.6,-,N/A,,Clear,70,2012-10-04 13:53:00
10:53 AM,81.0,75.9,85,30.18,10.0,ENE,6.9,-,N/A,,Clear,60,2012-10-04 14:53:00
11:53 AM,82.9,77.0,82,30.18,10.0,Variable,4.6,-,N/A,,Scattered Clouds,0,2012-10-04 15:53:00
12:53 PM,86.0,77.0,74,30.17,10.0,East,5.8,-,N/A,,Partly Cloudy,80,2012-10-04 16:53:00
1:53 PM,86.0,75.0,70,30.15,10.0,ENE,5.8,-,N/A,,Partly Cloudy,60,2012-10-04 17:53:00
2:53 PM,89.1,75.9,65,30.11,10.0,NNE,4.6,-,N/A,,Partly Cloudy,20,2012-10-04 18:53:00
3:53 PM,87.1,75.0,67,30.08,10.0,NW,9.2,-,N/A,,Clear,310,2012-10-04 19:53:00
4:53 PM,87.1,75.0,67,30.09,10.0,WNW,9.2,-,N/A,,Scattered Clouds,290,2012-10-04 20:53:00
5:21 PM,86.0,75.2,70,30.11,10.0,NW,6.9,-,N/A,Thunderstorm,Scattered Clouds,310,2012-10-04 21:21:00
5:53 PM,75.2,69.8,83,30.14,5.0,ESE,23.0,29.9,N/A,Rain-Thunderstorm,Light Rain,120,2012-10-04 21:53:00
5:55 PM,73.4,69.8,88,30.14,2.5,ESE,20.7,29.9,0.02,Rain-Thunderstorm,Heavy Rain,120,2012-10-04 21:55:00
6:02 PM,73.4,71.6,94,30.15,1.0,ESE,18.4,-,0.10,Rain-Thunderstorm,Heavy Thunderstorms and Rain,120,2012-10-04 22:02:00
6:53 PM,73.0,70.0,90,30.12,10.0,Calm,Calm,-,0.51,Rain,Light Rain,0,2012-10-04 22:53:00
7:53 PM,75.0,72.0,90,30.13,10.0,NE,6.9,-,0.01,,Mostly Cloudy,50,2012-10-04 23:53:00
8:26 PM,73.4,71.6,94,30.15,10.0,ENE,9.2,-,N/A,,Mostly Cloudy,70,2012-10-05 00:26:00
8:53 PM,75.0,72.0,90,30.15,10.0,ENE,6.9,-,N/A,,Scattered Clouds,70,2012-10-05 00:53:00
9:53 PM,73.9,71.1,91,30.14,10.0,NE,8.1,-,N/A,,Clear,50,2012-10-05 01:53:00
10:53 PM,75.0,71.1,87,30.15,10.0,ENE,9.2,-,N/A,,Clear,60,2012-10-05 02:53:00
11:53 PM,75.0,70.0,84,30.14,10.0,ENE,8.1,-,N/A,,Clear,70,2012-10-05 03:53:00